Location: Colonia Mina de C?rbuni
(46.1667°N, 22.7167°E)
Time: 07:38:06
(UTC+00:00)

Tiros 1 - Pass Details

Date: 01 May 2024
Orbit: 624 x 657 km, 48.4° (Epoch: 26 May)

Event Time Altitude Azimuth Distance (km) Brightness Sun altitude
Rises 20:27:51 0° 268° (W) 2,953 10.9 -22.9°
Reaches altitude 10° 20:30:13 10° 271° (W) 2,038 10.1 -23.1°
Maximum altitude 20:34:54 67° 355° (N) 692 7.4 -23.5°
Enters shadow 20:36:52 33° 68° (ENE) 1,064 8.1 -23.7°
